Location: Unspecified
(0.0000°N, 0.0000°E)
Time: 18:18:28
(UTC+00:00)

deb Briz - Pass Details

Date: 22 February 2026
Orbit: 1949 x 2166 km, 64.8° (Epoch: 6 March)

Event Time Altitude Azimuth Distance (km) Brightness Sun altitude
Rises 18:36:48 0° 237° (WSW) 5,410 ? -5.8°
Reaches altitude 10° 18:41:43 10° 254° (WSW) 4,384 ? -7.0°
Maximum altitude 18:48:31 18° 293° (WNW) 3,732 ? -8.6°
Drops below altitude 10° 18:55:22 10° 332° (NNW) 4,353 ? -10.3°
Sets 19:00:21 0° 350° (N) 5,359 ? -11.5°
